Station Historical Data
Daily Summary for January 22, 2017 Units:  Metric    English   Both
Next Day »
Daily Weekly Monthly Yearly Custom
  High: Low: Average:
Temperature: 5.7 °C 0.6 °C 3.3 °C
Dew Point: 5.1 °C -0.2 °C 2.7 °C
Humidity: 96% 94% 96%
Wind Speed: 45.1km/h 0km/h 11.6km/h
Wind Gust: 66km/h - -
Wind- - South
Pressure: 1012.4 hPa 1005.3 hPa -
Precipitation: 29.97 mm    
Historical Graphs
 
 
Tabular Data for January 22, 2017
Time Temperature Dew Point Pressure Wind Wind Speed Wind Gust Humidity Rainfall Rate (Hourly) solar Conditions
00:04 2.3 °C 1.8 °C 1012.4 hPa SE 9.7 km/h 37 km/h 96% 1.78 mm 0.00 W/m2
00:09 2.3 °C 1.7 °C 1012.1 hPa Calm   24.1 km/h 96% 1.78 mm 0.00 W/m2
00:14 2.2 °C 1.7 °C 1012.1 hPa SE 19.3 km/h 32.2 km/h 96% 1.52 mm 0.00 W/m2
00:19 2.2 °C 1.7 °C 1011.7 hPa SE 14.5 km/h 33.8 km/h 96% 1.27 mm 0.00 W/m2
00:24 2.2 °C 1.6 °C 1011.7 hPa ESE 12.9 km/h 30.6 km/h 96% 1.27 mm 0.00 W/m2
00:29 2.1 °C 1.6 °C 1011.7 hPa SSE 20.9 km/h 32.2 km/h 96% 1.27 mm 0.00 W/m2
00:34 2.1 °C 1.5 °C 1011.7 hPa SE 11.3 km/h 35.4 km/h 96% 0 mm 0.00 W/m2
00:39 2.1 °C 1.5 °C 1011.4 hPa SSE 12.9 km/h 32.2 km/h 96% 0 mm 0.00 W/m2
00:44 2 °C 1.4 °C 1011.1 hPa SE 14.5 km/h 30.6 km/h 96% 0 mm 0.00 W/m2
00:49 2.1 °C 1.5 °C 1011.1 hPa SSE 30.6 km/h 35.4 km/h 96% 1.52 mm 0.00 W/m2
00:54 2.1 °C 1.5 °C 1010.7 hPa South 29 km/h 38.6 km/h 96% 1.52 mm 0.00 W/m2
00:59 2.1 °C 1.6 °C 1010.4 hPa SE 27.4 km/h 33.8 km/h 96% 1.52 mm 0.00 W/m2
01:04 2.1 °C 1.6 °C 1010.4 hPa SSE 24.1 km/h 43.5 km/h 96% 1.52 mm 0.00 W/m2
01:09 2.2 °C 1.6 °C 1010 hPa SE 11.3 km/h 27.4 km/h 96% 1.02 mm 0.00 W/m2
01:14 2.2 °C 1.7 °C 1010 hPa South 25.7 km/h 38.6 km/h 96% 1.02 mm 0.00 W/m2
01:19 2.3 °C 1.7 °C 1010 hPa ESE 9.7 km/h 38.6 km/h 96% 1.02 mm 0.00 W/m2
01:24 2.3 °C 1.8 °C 1009.7 hPa ESE 3.2 km/h 37 km/h 96% 1.02 mm 0.00 W/m2
01:30 2.3 °C 1.8 °C 1009.7 hPa SE 22.5 km/h 32.2 km/h 96% 0 mm 0.00 W/m2
01:35 2.4 °C 1.9 °C 1009.4 hPa SE 12.9 km/h 30.6 km/h 96% 0 mm 0.00 W/m2
01:40 2.5 °C 1.9 °C 1009.4 hPa SSE 16.1 km/h 32.2 km/h 96% 0 mm 0.00 W/m2
01:45 2.6 °C 2 °C 1009.7 hPa SSE 22.5 km/h 35.4 km/h 96% 0 mm 0.00 W/m2
01:50 2.6 °C 2.1 °C 1009.4 hPa SE 24.1 km/h 41.8 km/h 96% 1.52 mm 0.00 W/m2
01:55 2.7 °C 2.1 °C 1009.4 hPa SSE 22.5 km/h 37 km/h 96% 1.52 mm 0.00 W/m2
02:00 2.7 °C 2.2 °C 1009 hPa SSE 11.3 km/h 32.2 km/h 96% 1.52 mm 0.00 W/m2
02:05 2.8 °C 2.2 °C 1009.4 hPa SE 30.6 km/h 41.8 km/h 96% 1.02 mm 0.00 W/m2
02:10 2.8 °C 2.3 °C 1009 hPa South 25.7 km/h 41.8 km/h 96% 0 mm 0.00 W/m2
02:15 2.9 °C 2.3 °C 1009 hPa SSE 22.5 km/h 35.4 km/h 96% 0 mm 0.00 W/m2
02:20 2.9 °C 2.4 °C 1008.7 hPa SE 32.2 km/h 51.5 km/h 96% 0 mm 0.00 W/m2
02:25 3 °C 2.4 °C 1008.7 hPa SSE 24.1 km/h 33.8 km/h 96% 0 mm 0.00 W/m2
02:30 3 °C 2.4 °C 1008.7 hPa SE 14.5 km/h 37 km/h 96% 0 mm 0.00 W/m2
02:35 3.1 °C 2.5 °C 1008.4 hPa SE 27.4 km/h 46.7 km/h 96% 0 mm 0.00 W/m2
02:40 3.1 °C 2.6 °C 1008.4 hPa SSE 29 km/h 48.3 km/h 96% 0 mm 0.00 W/m2
02:45 3.2 °C 2.6 °C 1008 hPa SSE 35.4 km/h 49.9 km/h 96% 1.02 mm 0.00 W/m2
02:50 3.2 °C 2.6 °C 1008 hPa South 24.1 km/h 38.6 km/h 96% 1.02 mm 0.00 W/m2
02:55 3.2 °C 2.7 °C 1007.7 hPa SE 12.9 km/h 40.2 km/h 96% 2.03 mm 0.00 W/m2
03:00 3.2 °C 2.7 °C 1007.3 hPa SE 35.4 km/h 66 km/h 96% 1.52 mm 0.00 W/m2
03:05 3.3 °C 2.7 °C 1007.3 hPa SE 43.5 km/h 45.1 km/h 96% 1.02 mm 0.00 W/m2
03:10 3.3 °C 2.8 °C 1007.3 hPa SSE 16.1 km/h 45.1 km/h 96% 0 mm 0.00 W/m2
03:15 3.4 °C 2.8 °C 1007.3 hPa SSE 25.7 km/h 43.5 km/h 96% 0 mm 0.00 W/m2
03:20 3.4 °C 2.9 °C 1007 hPa SE 16.1 km/h 41.8 km/h 96% 0 mm 0.00 W/m2
03:25 3.5 °C 2.9 °C 1007.3 hPa SSE 22.5 km/h 32.2 km/h 96% 0 mm 0.00 W/m2
03:30 3.5 °C 2.9 °C 1007 hPa SSE 17.7 km/h 41.8 km/h 96% 4.06 mm 0.00 W/m2
03:35 3.6 °C 3 °C 1007 hPa South 30.6 km/h 41.8 km/h 96% 2.54 mm 0.00 W/m2
03:40 3.7 °C 3.1 °C 1006.7 hPa SSE 29 km/h 38.6 km/h 96% 1.52 mm 0.00 W/m2
03:45 3.7 °C 3.2 °C 1006.3 hPa SSE 16.1 km/h 40.2 km/h 96% 1.02 mm 0.00 W/m2
03:50 3.8 °C 3.2 °C 1006.3 hPa SSE 35.4 km/h 46.7 km/h 96% 0 mm 0.00 W/m2
03:55 3.9 °C 3.3 °C 1006.7 hPa SSE 17.7 km/h 40.2 km/h 96% 0 mm 0.00 W/m2
04:00 3.9 °C 3.4 °C 1006.3 hPa SSE 24.1 km/h 43.5 km/h 96% 0 mm 0.00 W/m2
04:05 4 °C 3.4 °C 1006 hPa SSE 30.6 km/h 46.7 km/h 96% 0 mm 0.00 W/m2
04:10 4.1 °C 3.5 °C 1006.3 hPa SE 20.9 km/h 32.2 km/h 96% 0 mm 0.00 W/m2
04:15 4.2 °C 3.6 °C 1006.3 hPa SSE 27.4 km/h 46.7 km/h 96% 0 mm 0.00 W/m2
04:20 4.2 °C 3.6 °C 1006.3 hPa South 27.4 km/h 37 km/h 96% 0 mm 0.00 W/m2
04:25 4.2 °C 3.6 °C 1006 hPa SSE 16.1 km/h 43.5 km/h 96% 0 mm 0.00 W/m2
04:30 4.2 °C 3.7 °C 1006.3 hPa SSW 32.2 km/h 45.1 km/h 96% 0 mm 0.00 W/m2
04:35 4.3 °C 3.7 °C 1006.3 hPa SSW 20.9 km/h 32.2 km/h 96% 0 mm 0.00 W/m2
04:40 4.3 °C 3.8 °C 1006 hPa South 11.3 km/h 41.8 km/h 96% 0 mm 0.00 W/m2
04:45 4.3 °C 3.8 °C 1006.3 hPa SSE 16.1 km/h 45.1 km/h 96% 0 mm 0.00 W/m2
04:50 4.4 °C 3.8 °C 1006.3 hPa SSW 16.1 km/h 41.8 km/h 96% 0 mm 0.00 W/m2
04:56 4.4 °C 3.9 °C 1006 hPa SSE 9.7 km/h 30.6 km/h 96% 0 mm 0.00 W/m2
05:01 4.4 °C 3.9 °C 1006.3 hPa SSE 30.6 km/h 43.5 km/h 96% 0 mm 0.00 W/m2
05:06 4.5 °C 3.9 °C 1006 hPa SSE 20.9 km/h 48.3 km/h 96% 0 mm 0.00 W/m2
05:11 4.6 °C 4 °C 1006.3 hPa South 12.9 km/h 51.5 km/h 96% 0 mm 0.00 W/m2
05:16 4.6 °C 4 °C 1006.3 hPa South 11.3 km/h 48.3 km/h 96% 0 mm 0.00 W/m2
05:21 4.6 °C 4 °C 1006.3 hPa SSE 17.7 km/h 43.5 km/h 96% 0 mm 0.00 W/m2
05:26 4.6 °C 4 °C 1006.3 hPa SSW 17.7 km/h 33.8 km/h 96% 0 mm 0.00 W/m2
05:31 4.6 °C 4 °C 1006.3 hPa South 35.4 km/h 46.7 km/h 96% 0 mm 0.00 W/m2
05:36 4.6 °C 4 °C 1006.3 hPa South 45.1 km/h 57.9 km/h 96% 0 mm 0.00 W/m2
05:41 4.6 °C 4 °C 1006.3 hPa South 25.7 km/h 40.2 km/h 96% 0 mm 0.00 W/m2
05:46 4.7 °C 4.1 °C 1006.7 hPa SSW 25.7 km/h 56.3 km/h 96% 0 mm 0.00 W/m2
05:51 4.7 °C 4.1 °C 1006.3 hPa South 27.4 km/h 38.6 km/h 96% 0 mm 0.00 W/m2
05:56 4.7 °C 4.2 °C 1006.7 hPa SSE 33.8 km/h 46.7 km/h 96% 0 mm 0.00 W/m2
06:01 4.7 °C 4.1 °C 1006.7 hPa South 41.8 km/h 54.7 km/h 96% 0 mm 0.00 W/m2
06:06 4.7 °C 4.2 °C 1006.3 hPa SSE 27.4 km/h 48.3 km/h 96% 0 mm 0.00 W/m2
06:11 4.7 °C 4.2 °C 1006.7 hPa SSE 17.7 km/h 22.5 km/h 96% 0 mm 0.00 W/m2
06:16 4.7 °C 4.2 °C 1006.7 hPa SSW 29 km/h 54.7 km/h 96% 0 mm 0.00 W/m2
06:21 4.7 °C 4.2 °C 1007 hPa SSW 6.4 km/h 38.6 km/h 96% 0 mm 0.00 W/m2
06:26 4.7 °C 4.2 °C 1007 hPa SSE 25.7 km/h 51.5 km/h 96% 0 mm 0.00 W/m2
06:31 4.7 °C 4.2 °C 1006.7 hPa South 29 km/h 29 km/h 96% 0 mm 0.00 W/m2
06:36 4.8 °C 4.2 °C 1007 hPa SSE 33.8 km/h 45.1 km/h 96% 0 mm 0.00 W/m2
06:41 4.7 °C 4.2 °C 1007 hPa SSE 19.3 km/h 22.5 km/h 96% 0 mm 0.00 W/m2
06:46 4.7 °C 4.2 °C 1007.3 hPa SE 14.5 km/h 43.5 km/h 96% 0 mm 0.00 W/m2
06:51 4.7 °C 4.1 °C 1007 hPa South 38.6 km/h 38.6 km/h 96% 0 mm 0.00 W/m2
06:56 4.7 °C 4.1 °C 1007.3 hPa South 24.1 km/h 27.4 km/h 96% 0 mm 0.00 W/m2
07:01 4.7 °C 4.1 °C 1007.3 hPa SSW 14.5 km/h 14.5 km/h 96% 0 mm 0.00 W/m2
07:06 4.7 °C 4.1 °C 1007.7 hPa SW 14.5 km/h 14.5 km/h 96% 0 mm 0.00 W/m2
07:11 4.7 °C 4.1 °C 1007.7 hPa SSW 29 km/h 29 km/h 96% 0 mm 0.00 W/m2
07:16 4.7 °C 4.1 °C 1007.3 hPa SSE 19.3 km/h 24.1 km/h 96% 0 mm 0.00 W/m2
07:21 4.6 °C 4 °C 1007.7 hPa SSE 29 km/h 30.6 km/h 96% 0 mm 0.00 W/m2
07:26 4.6 °C 4 °C 1007.3 hPa SSE 32.2 km/h 38.6 km/h 96% 1.78 mm 0.00 W/m2
07:31 4.6 °C 4 °C 1007.7 hPa South 16.1 km/h 35.4 km/h 96% 1.78 mm 0.00 W/m2
07:36 4.6 °C 4 °C 1007.7 hPa South 27.4 km/h 27.4 km/h 96% 2.03 mm 0.00 W/m2
07:41 4.6 °C 4 °C 1007.7 hPa SSE 19.3 km/h 38.6 km/h 96% 1.78 mm 0.00 W/m2
07:46 4.6 °C 4 °C 1008 hPa SSW 29 km/h 38.6 km/h 96% 1.27 mm 0.00 W/m2
07:51 4.7 °C 4.1 °C 1008 hPa SW 22.5 km/h 38.6 km/h 96% 0 mm 0.00 W/m2
07:56 4.7 °C 4.1 °C 1008 hPa South 9.7 km/h 16.1 km/h 96% 0 mm 0.00 W/m2
08:01 4.7 °C 4.1 °C 1008.4 hPa SSW 16.1 km/h 27.4 km/h 96% 0 mm 0.00 W/m2
08:06 4.7 °C 4.1 °C 1008.4 hPa SSE 20.9 km/h 41.8 km/h 96% 1.02 mm 7.00 W/m2
08:11 4.7 °C 4.1 °C 1008.4 hPa SSW 20.9 km/h 20.9 km/h 96% 1.02 mm 7.00 W/m2
08:16 4.6 °C 4 °C 1008.4 hPa WSW 6.4 km/h 17.7 km/h 96% 1.78 mm 5.00 W/m2
08:21 4.6 °C 4 °C 1008.7 hPa SSW 27.4 km/h 33.8 km/h 96% 9.14 mm 5.00 W/m2
08:26 4.6 °C 4 °C 1009 hPa SW 17.7 km/h 20.9 km/h 96% 4.06 mm 0.00 W/m2
08:31 4.6 °C 4 °C 1009 hPa SSW 1.6 km/h 17.7 km/h 96% 8.38 mm 0.00 W/m2
08:36 4.6 °C 4 °C 1009.4 hPa South 3.2 km/h 4.8 km/h 96% 6.1 mm 0.00 W/m2
08:41 4.6 °C 4 °C 1009.4 hPa SW 4.8 km/h 22.5 km/h 96% 5.59 mm 7.00 W/m2
08:46 4.6 °C 4 °C 1009.4 hPa Calm   17.7 km/h 96% 4.06 mm 18.00 W/m2
08:51 4.7 °C 4.1 °C 1009.7 hPa WSW 20.9 km/h 30.6 km/h 96% 4.06 mm 39.00 W/m2
08:56 4.7 °C 4.1 °C 1009.7 hPa SSW 14.5 km/h 17.7 km/h 96% 4.06 mm 26.00 W/m2
09:01 4.7 °C 4.2 °C 1009.7 hPa SW 12.9 km/h 19.3 km/h 96% 4.57 mm 32.00 W/m2
09:07 4.7 °C 4.2 °C 1010 hPa South 11.3 km/h 37 km/h 96% 3.56 mm 23.00 W/m2
09:12 4.7 °C 4.2 °C 1010 hPa SW 25.7 km/h 37 km/h 96% 1.78 mm 42.00 W/m2
09:17 4.7 °C 4.2 °C 1010 hPa SSW 30.6 km/h 30.6 km/h 96% 1.27 mm 39.00 W/m2
09:22 4.7 °C 4.2 °C 1010 hPa SW 24.1 km/h 32.2 km/h 96% 1.27 mm 30.00 W/m2
09:27 4.7 °C 4.2 °C 1010 hPa South 33.8 km/h 33.8 km/h 96% 1.27 mm 37.00 W/m2
09:32 4.7 °C 4.2 °C 1010 hPa SSW 12.9 km/h 40.2 km/h 96% 0 mm 42.00 W/m2
09:37 4.7 °C 4.2 °C 1010.4 hPa South 20.9 km/h 30.6 km/h 96% 0 mm 25.00 W/m2
09:42 4.7 °C 4.2 °C 1010.7 hPa SW 19.3 km/h 27.4 km/h 96% 0 mm 30.00 W/m2
09:47 4.7 °C 4.2 °C 1010.7 hPa SSW 17.7 km/h 32.2 km/h 96% 2.29 mm 47.00 W/m2
09:52 4.7 °C 4.2 °C 1010.4 hPa South 29 km/h 33.8 km/h 96% 2.54 mm 56.00 W/m2
09:57 4.7 °C 4.2 °C 1010.4 hPa SSW 19.3 km/h 19.3 km/h 96% 1.78 mm 69.00 W/m2
10:02 4.8 °C 4.2 °C 1010.7 hPa SW 27.4 km/h 29 km/h 96% 1.02 mm 100.00 W/m2
10:07 4.8 °C 4.2 °C 1010.7 hPa South 6.4 km/h 25.7 km/h 96% 0 mm 58.00 W/m2
10:12 4.8 °C 4.2 °C 1010.7 hPa SSW 8 km/h 12.9 km/h 96% 0 mm 58.00 W/m2
10:17 4.8 °C 4.3 °C 1010.7 hPa SSW 17.7 km/h 35.4 km/h 96% 0 mm 67.00 W/m2
10:22 4.8 °C 4.3 °C 1010.7 hPa SSW 6.4 km/h 25.7 km/h 96% 0 mm 56.00 W/m2
10:27 4.8 °C 4.3 °C 1010.7 hPa SSW 17.7 km/h 32.2 km/h 96% 0 mm 62.00 W/m2
10:32 4.8 °C 4.3 °C 1010.4 hPa SSE 16.1 km/h 32.2 km/h 96% 0 mm 54.00 W/m2
10:37 4.8 °C 4.3 °C 1010.7 hPa SSW 25.7 km/h 25.7 km/h 96% 0 mm 72.00 W/m2
10:42 4.9 °C 4.3 °C 1010.7 hPa SSW 17.7 km/h 37 km/h 96% 0 mm 109.00 W/m2
10:47 4.9 °C 4.3 °C 1010.7 hPa SSW 30.6 km/h 38.6 km/h 96% 0 mm 98.00 W/m2
10:52 4.9 °C 4.3 °C 1010.7 hPa SW 24.1 km/h 38.6 km/h 96% 0 mm 70.00 W/m2
10:57 4.9 °C 4.3 °C 1010.7 hPa South 4.8 km/h 17.7 km/h 96% 0 mm 76.00 W/m2
11:02 4.9 °C 4.3 °C 1010.7 hPa SSW 29 km/h 33.8 km/h 96% 0 mm 95.00 W/m2
11:07 5 °C 4.4 °C 1010.4 hPa South 24.1 km/h 27.4 km/h 96% 0 mm 54.00 W/m2
11:12 5 °C 4.4 °C 1010.7 hPa SW 6.4 km/h 25.7 km/h 96% 0 mm 72.00 W/m2
11:17 5 °C 4.4 °C 1010.4 hPa WSW 9.7 km/h 20.9 km/h 96% 0 mm 118.00 W/m2
11:22 5 °C 4.4 °C 1010.7 hPa South 16.1 km/h 19.3 km/h 96% 0 mm 98.00 W/m2
11:27 5.1 °C 4.4 °C 1010.4 hPa SW 20.9 km/h 22.5 km/h 96% 0 mm 90.00 W/m2
11:32 5.1 °C 4.4 °C 1010 hPa South 9.7 km/h 30.6 km/h 96% 0 mm 142.00 W/m2
11:37 5.1 °C 4.4 °C 1010.4 hPa SSE 11.3 km/h 24.1 km/h 96% 0 mm 142.00 W/m2
11:42 5.1 °C 4.6 °C 1010 hPa South 9.7 km/h 17.7 km/h 96% 0 mm 148.00 W/m2
11:47 5.2 °C 4.6 °C 1010 hPa South 9.7 km/h 24.1 km/h 96% 0 mm 125.00 W/m2
11:52 5.2 °C 4.6 °C 1010 hPa SSE 20.9 km/h 24.1 km/h 96% 0 mm 84.00 W/m2
11:57 5.2 °C 4.6 °C 1009.7 hPa South 17.7 km/h 25.7 km/h 96% 0 mm 72.00 W/m2
12:02 5.3 °C 4.7 °C 1009.7 hPa Calm   22.5 km/h 96% 0 mm 142.00 W/m2
12:07 5.3 °C 4.7 °C 1009.7 hPa SW 11.3 km/h 19.3 km/h 96% 0 mm 153.00 W/m2
12:13 5.3 °C 4.7 °C 1009.4 hPa SW 3.2 km/h 17.7 km/h 96% 0 mm 130.00 W/m2
12:18 5.3 °C 4.7 °C 1009.4 hPa SSE 11.3 km/h 17.7 km/h 96% 0 mm 146.00 W/m2
12:23 5.3 °C 4.7 °C 1009 hPa SSW 12.9 km/h 24.1 km/h 96% 0 mm 292.00 W/m2
12:28 5.3 °C 4.7 °C 1009 hPa South 9.7 km/h 11.3 km/h 96% 0 mm 149.00 W/m2
12:33 5.3 °C 4.7 °C 1009 hPa Calm     96% 0 mm 158.00 W/m2
12:38 5.3 °C 4.7 °C 1008.7 hPa South 16.1 km/h 17.7 km/h 96% 0 mm 348.00 W/m2
12:43 5.4 °C 4.8 °C 1008.7 hPa South 14.5 km/h 16.1 km/h 96% 0 mm 279.00 W/m2
12:48 5.4 °C 4.9 °C 1008.7 hPa SW 24.1 km/h 24.1 km/h 96% 0 mm 415.00 W/m2
12:53 5.5 °C 4.9 °C 1008.7 hPa South 8 km/h 17.7 km/h 96% 0 mm 603.00 W/m2
12:58 5.6 °C 5 °C 1008.4 hPa SW 11.3 km/h 22.5 km/h 96% 0 mm 339.00 W/m2
13:03 5.7 °C 5.1 °C 1008.4 hPa SSE 16.1 km/h 19.3 km/h 96% 0 mm 267.00 W/m2
13:08 5.7 °C 5.1 °C 1008.4 hPa SSW 11.3 km/h 14.5 km/h 96% 0 mm 350.00 W/m2
13:13 5.7 °C 5.1 °C 1008 hPa SSW 4.8 km/h 20.9 km/h 96% 0 mm 207.00 W/m2
13:18 5.7 °C 5.1 °C 1008 hPa Calm   12.9 km/h 96% 0 mm 628.00 W/m2
13:23 5.7 °C 5.1 °C 1008 hPa SSW 4.8 km/h 16.1 km/h 96% 0 mm 295.00 W/m2
13:28 5.7 °C 5.1 °C 1007.7 hPa SW 14.5 km/h 19.3 km/h 96% 0 mm 673.00 W/m2
13:33 5.6 °C 5 °C 1007.7 hPa WSW 9.7 km/h 12.9 km/h 96% 0 mm 274.00 W/m2
13:38 5.6 °C 4.9 °C 1007.7 hPa Calm   11.3 km/h 96% 0 mm 272.00 W/m2
13:43 5.6 °C 4.9 °C 1007.7 hPa Calm   12.9 km/h 96% 0 mm 200.00 W/m2
13:48 5.5 °C 4.9 °C 1007.3 hPa SSE 1.6 km/h 17.7 km/h 96% 0 mm 244.00 W/m2
13:53 5.4 °C 4.9 °C 1007.3 hPa Calm   20.9 km/h 96% 0 mm 647.00 W/m2
13:58 5.4 °C 4.9 °C 1007.3 hPa WSW 9.7 km/h 12.9 km/h 96% 0 mm 309.00 W/m2
14:03 5.5 °C 4.9 °C 1007.3 hPa WSW 9.7 km/h 19.3 km/h 96% 0 mm 153.00 W/m2
14:08 5.4 °C 4.9 °C 1007.3 hPa SSW 9.7 km/h 16.1 km/h 96% 0 mm 323.00 W/m2
14:13 5.4 °C 4.8 °C 1007.3 hPa Calm   16.1 km/h 96% 0 mm 401.00 W/m2
14:18 5.4 °C 4.9 °C 1007 hPa WSW 3.2 km/h 12.9 km/h 96% 0 mm 193.00 W/m2
14:23 5.4 °C 4.9 °C 1007 hPa SW 8 km/h 16.1 km/h 96% 0 mm 410.00 W/m2
14:28 5.4 °C 4.9 °C 1006.7 hPa SW 16.1 km/h 16.1 km/h 96% 0 mm 417.00 W/m2
14:33 5.4 °C 4.9 °C 1006.7 hPa WSW 1.6 km/h 1.6 km/h 96% 0 mm 408.00 W/m2
14:38 5.5 °C 4.9 °C 1006.7 hPa Calm   1.6 km/h 96% 0 mm 169.00 W/m2
14:43 5.4 °C 4.9 °C 1006.7 hPa Calm   4.8 km/h 96% 0 mm 176.00 W/m2
14:48 5.4 °C 4.9 °C 1006.7 hPa Calm   14.5 km/h 96% 0 mm 118.00 W/m2
14:53 5.4 °C 4.7 °C 1006.3 hPa Calm     95% 0 mm 121.00 W/m2
14:58 5.4 °C 4.7 °C 1006.3 hPa Calm     95% 0 mm 70.00 W/m2
15:03 5.4 °C 4.9 °C 1006.3 hPa Calm     96% 0 mm 60.00 W/m2
15:08 5.4 °C 4.7 °C 1006 hPa Calm   1.6 km/h 95% 0 mm 84.00 W/m2
15:13 5.4 °C 4.7 °C 1006 hPa Calm     95% 0 mm 72.00 W/m2
15:18 5.4 °C 4.7 °C 1006 hPa WSW 1.6 km/h 1.6 km/h 95% 0 mm 105.00 W/m2
15:23 5.4 °C 4.7 °C 1006 hPa Calm     95% 0 mm 81.00 W/m2
15:28 5.3 °C 4.6 °C 1006 hPa Calm   1.6 km/h 95% 0 mm 47.00 W/m2
15:33 5.3 °C 4.6 °C 1005.6 hPa Calm     95% 0 mm 56.00 W/m2
15:38 5.3 °C 4.6 °C 1005.6 hPa Calm     95% 0 mm 18.00 W/m2
15:43 5.3 °C 4.6 °C 1005.6 hPa Calm   1.6 km/h 95% 0 mm 19.00 W/m2
15:48 5.3 °C 4.6 °C 1005.6 hPa Calm     95% 0 mm 12.00 W/m2
15:53 5.2 °C 4.5 °C 1005.3 hPa Calm   16.1 km/h 95% 0 mm 7.00 W/m2
15:58 5.2 °C 4.4 °C 1005.3 hPa West 24.1 km/h 25.7 km/h 95% 0 mm 5.00 W/m2
16:03 5 °C 4.3 °C 1005.3 hPa Calm   17.7 km/h 95% 0 mm 5.00 W/m2
16:08 4.8 °C 4.1 °C 1005.3 hPa Calm   27.4 km/h 95% 0 mm 0.00 W/m2
16:13 4.6 °C 3.7 °C 1005.6 hPa SW 16.1 km/h 30.6 km/h 94% 5.33 mm 0.00 W/m2
16:18 4.2 °C 3.3 °C 1005.6 hPa SSW 20.9 km/h 29 km/h 94% 11.18 mm 0.00 W/m2
16:23 3.9 °C 3.1 °C 1005.6 hPa SSW 8 km/h 22.5 km/h 94% 7.87 mm 0.00 W/m2
16:28 3.8 °C 2.9 °C 1005.6 hPa South 20.9 km/h 29 km/h 94% 10.41 mm 0.00 W/m2
16:29 3.7 °C 2.8 °C 1005.6 hPa SSE 14.5 km/h 29 km/h 94% 10.41 mm 0.00 W/m2
16:34 3.6 °C 2.7 °C 1006 hPa SSE 14.5 km/h 19.3 km/h 94% 8.64 mm 0.00 W/m2
16:39 3.4 °C 2.5 °C 1006 hPa South 12.9 km/h 24.1 km/h 94% 7.37 mm 0.00 W/m2
16:44 3.2 °C 2.5 °C 1006 hPa South 11.3 km/h 19.3 km/h 95% 5.59 mm 0.00 W/m2
16:49 3.1 °C 2.2 °C 1006 hPa SSE 3.2 km/h 20.9 km/h 94% 5.08 mm 5.00 W/m2
16:54 2.9 °C 2.2 °C 1006 hPa SSE 14.5 km/h 17.7 km/h 95% 2.54 mm 5.00 W/m2
16:59 2.8 °C 2.1 °C 1006 hPa SSE 8 km/h 17.7 km/h 95% 3.56 mm 0.00 W/m2
17:04 2.7 °C 2 °C 1006 hPa Calm     95% 2.03 mm 0.00 W/m2
17:09 2.6 °C 1.9 °C 1006 hPa Calm     95% 1.27 mm 0.00 W/m2
17:14 2.6 °C 1.8 °C 1006 hPa Calm     95% 1.27 mm 0.00 W/m2
17:19 2.5 °C 1.8 °C 1006 hPa Calm   1.6 km/h 95% 2.29 mm 0.00 W/m2
17:24 2.4 °C 1.7 °C 1006.3 hPa SE 9.7 km/h 12.9 km/h 95% 5.08 mm 0.00 W/m2
17:29 2.4 °C 1.7 °C 1006.3 hPa Calm   1.6 km/h 95% 2.54 mm 0.00 W/m2
17:34 2.2 °C 1.4 °C 1006.3 hPa Calm     95% 1.27 mm 0.00 W/m2
17:39 1.9 °C 1.2 °C 1006 hPa Calm     95% 1.02 mm 0.00 W/m2
17:44 1.7 °C 0.8 °C 1005.6 hPa Calm     94% 0 mm 0.00 W/m2
17:49 1.6 °C 0.8 °C 1005.6 hPa Calm     95% 0 mm 0.00 W/m2
17:54 1.4 °C 0.6 °C 1005.6 hPa Calm     94% 0 mm 0.00 W/m2
17:59 1.3 °C 0.6 °C 1005.6 hPa Calm     95% 0 mm 0.00 W/m2
18:04 1.2 °C 0.5 °C 1005.6 hPa Calm     95% 0 mm 0.00 W/m2
18:09 1.2 °C 0.4 °C 1006 hPa Calm     95% 0 mm 0.00 W/m2
18:14 1.2 °C 0.4 °C 1006 hPa Calm     95% 0 mm 0.00 W/m2
18:19 1.1 °C 0.4 °C 1006.3 hPa Calm     95% 0 mm 0.00 W/m2
18:24 1.1 °C 0.3 °C 1006 hPa Calm     95% 0 mm 0.00 W/m2
18:29 1 °C 0.3 °C 1006.3 hPa Calm     95% 0 mm 0.00 W/m2
18:34 1 °C 0.3 °C 1006.3 hPa Calm     95% 0 mm 0.00 W/m2
18:39 0.9 °C 0.2 °C 1006.3 hPa Calm     95% 0 mm 0.00 W/m2
18:44 0.9 °C 0.2 °C 1006.3 hPa Calm     95% 0 mm 0.00 W/m2
18:50 0.8 °C 0.1 °C 1006.3 hPa Calm     95% 0 mm 0.00 W/m2
18:55 0.8 °C 0.1 °C 1006.3 hPa Calm     95% 0 mm 0.00 W/m2
19:00 0.8 °C 0.1 °C 1006.3 hPa Calm     95% 0 mm 0.00 W/m2
19:05 0.8 °C 0.1 °C 1006.3 hPa Calm     95% 0 mm 0.00 W/m2
19:10 0.7 °C 0 °C 1006.3 hPa Calm     95% 0 mm 0.00 W/m2
19:15 0.7 °C 0 °C 1006.3 hPa Calm     95% 0 mm 0.00 W/m2
19:20 0.7 °C -0.1 °C 1006.3 hPa Calm     95% 0 mm 0.00 W/m2
19:25 0.7 °C -0.1 °C 1006.3 hPa Calm     95% 0 mm 0.00 W/m2
19:30 0.6 °C -0.1 °C 1006.7 hPa Calm     95% 1.52 mm 0.00 W/m2
19:35 0.6 °C -0.1 °C 1006.3 hPa Calm     95% 1.52 mm 0.00 W/m2
19:40 0.6 °C -0.1 °C 1006.3 hPa Calm     95% 1.52 mm 0.00 W/m2
19:45 0.6 °C -0.1 °C 1006.3 hPa Calm     95% 1.52 mm 0.00 W/m2
19:50 0.6 °C -0.1 °C 1006 hPa Calm     95% 1.52 mm 0.00 W/m2
19:55 0.6 °C -0.2 °C 1006.3 hPa Calm     95% 2.54 mm 0.00 W/m2
20:00 0.6 °C -0.2 °C 1006.3 hPa Calm     95% 4.83 mm 0.00 W/m2
20:05 0.6 °C -0.2 °C 1006.3 hPa Calm     95% 6.35 mm 0.00 W/m2
20:10 0.6 °C -0.2 °C 1006.3 hPa Calm     95% 7.11 mm 0.00 W/m2
20:15 0.6 °C -0.2 °C 1006.3 hPa Calm     95% 6.6 mm 0.00 W/m2
20:20 0.6 °C 0 °C 1006.7 hPa Calm     96% 6.35 mm 0.00 W/m2
20:25 0.6 °C 0 °C 1006.7 hPa Calm     96% 6.1 mm 0.00 W/m2
20:30 0.6 °C -0.2 °C 1006.7 hPa Calm     95% 5.84 mm 0.00 W/m2
20:35 0.6 °C 0 °C 1006.7 hPa Calm     96% 7.87 mm 0.00 W/m2
20:40 0.6 °C 0 °C 1007 hPa Calm     96% 7.37 mm 0.00 W/m2
20:45 0.6 °C 0 °C 1007 hPa Calm     96% 5.84 mm 0.00 W/m2
20:50 0.6 °C 0 °C 1007.3 hPa Calm     96% 6.6 mm 0.00 W/m2
20:55 0.6 °C 0 °C 1007.3 hPa Calm     96% 5.84 mm 0.00 W/m2
21:00 0.6 °C 0 °C 1007.3 hPa Calm     96% 3.56 mm 0.00 W/m2
21:05 0.6 °C 0 °C 1007.3 hPa Calm     96% 6.86 mm 0.00 W/m2
21:10 0.6 °C 0 °C 1007.3 hPa Calm     96% 4.83 mm 0.00 W/m2
21:15 0.6 °C 0 °C 1007.3 hPa Calm     96% 3.56 mm 0.00 W/m2
21:20 0.6 °C 0 °C 1007.3 hPa Calm     96% 2.29 mm 0.00 W/m2
21:25 0.6 °C 0 °C 1007.3 hPa Calm     96% 3.81 mm 0.00 W/m2
21:30 0.6 °C 0 °C 1007.3 hPa Calm     96% 3.3 mm 0.00 W/m2
21:35 0.6 °C 0 °C 1007.3 hPa Calm     96% 2.03 mm 0.00 W/m2
21:40 0.6 °C 0.1 °C 1007.7 hPa Calm     96% 3.05 mm 0.00 W/m2
21:45 0.6 °C 0.1 °C 1007.7 hPa Calm     96% 2.29 mm 0.00 W/m2
21:50 0.6 °C 0 °C 1007.7 hPa Calm     96% 2.29 mm 0.00 W/m2
21:55 0.6 °C 0.1 °C 1007.7 hPa Calm     96% 1.52 mm 0.00 W/m2
22:00 0.6 °C 0.1 °C 1007.7 hPa Calm     96% 1.27 mm 0.00 W/m2
22:05 0.6 °C 0.1 °C 1008 hPa Calm     96% 1.27 mm 0.00 W/m2
22:10 0.6 °C 0 °C 1008 hPa Calm     96% 1.27 mm 0.00 W/m2
22:15 0.6 °C 0 °C 1007.7 hPa Calm     96% 1.27 mm 0.00 W/m2
22:20 0.6 °C 0 °C 1008 hPa Calm     96% 1.27 mm 0.00 W/m2
22:25 0.6 °C 0 °C 1007.7 hPa Calm     96% 1.02 mm 0.00 W/m2
22:30 0.6 °C 0 °C 1007.7 hPa Calm     96% 0 mm 0.00 W/m2
22:35 0.6 °C 0 °C 1007.7 hPa Calm     96% 0 mm 0.00 W/m2
22:40 0.6 °C 0 °C 1007.7 hPa Calm     96% 0 mm 0.00 W/m2
22:45 0.6 °C 0 °C 1007.7 hPa Calm     96% 0 mm 0.00 W/m2
22:50 0.6 °C 0 °C 1007.7 hPa Calm     96% 0 mm 0.00 W/m2
22:55 0.6 °C 0 °C 1007.7 hPa Calm     96% 0 mm 0.00 W/m2
23:00 0.6 °C 0 °C 1007.7 hPa Calm     96% 0 mm 0.00 W/m2
23:05 0.6 °C 0 °C 1007.7 hPa Calm     96% 0 mm 0.00 W/m2
23:10 0.6 °C 0 °C 1007.7 hPa Calm     96% 0 mm 0.00 W/m2
23:15 0.6 °C 0 °C 1007.7 hPa Calm     96% 0 mm 0.00 W/m2
23:20 0.6 °C 0.1 °C 1007.7 hPa Calm     96% 0 mm 0.00 W/m2
23:25 0.6 °C 0.1 °C 1007.7 hPa Calm     96% 0 mm 0.00 W/m2
23:30 0.6 °C 0.1 °C 1007.7 hPa Calm     96% 0 mm 0.00 W/m2
23:35 0.6 °C 0.1 °C 1007.7 hPa Calm     96% 0 mm 0.00 W/m2
23:41 0.6 °C 0.1 °C 1007.7 hPa Calm     96% 0 mm 0.00 W/m2
23:45 0.6 °C 0.1 °C 1007.7 hPa Calm     96% 0 mm 0.00 W/m2
23:51 0.6 °C 0.1 °C 1007.7 hPa Calm     96% 0 mm 0.00 W/m2
23:56 0.6 °C 0.1 °C 1007.7 hPa Calm     96% 0 mm 0.00 W/m2
Foresthill Weather
 WU-history PHP script courtesy of   Juneau County Weather.
powered by Cumulus v1.9.3 (1059)
Ambient Weather VWS v14.00
Top Contact Website Map Copyright © 2007 - 2018 Foresthillweather.com Never base important decisions on this or any weather information obtained from the Internet